Shelby, NC

3:09 AM EDT on April 23, 2018 (GMT -0400)
Shelby Municipal

Weather History for KEHO - January, 2014

Change the Weather History Date:

Thursday, January 2, 2014

  Actual Average (KHKY) Record (KHKY)
Temperature  
Mean Temperature 38 °F -  
Max Temperature 46 °F 48 °F 76 °F (1952)
Min Temperature 30 °F 31 °F 10 °F (2018)
Degree Days  
Heating Degree Days 27    
Moisture  
Dew Point 37 °F    
Average Humidity 87    
Maximum Humidity 99    
Minimum Humidity 58    
Precipitation  
Precipitation 0.21 in - - ()
Sea Level Pressure  
Sea Level Pressure 29.86 in    
Wind  
Wind Speed 4 mph (WSW)    
Max Wind Speed 22 mph    
Max Gust Speed 33 mph    
Visibility 9 miles    
Events Rain    
Averages and records for this station are not official NWS values.
T = Trace of Precipitation, MM = Missing Value Source: NWS Daily Summary

Daily Weather History Graph

Daily Weather History Graph

Search for Another Location

Airport or City:

Astronomy

Jan. 02, 2014 Rise Set
Actual Time 7:35 AM EST 5:25 PM EST
Civil Twilight 7:07 AM EST 5:54 PM EST
Nautical Twilight 6:35 AM EST 6:25 PM EST
Astronomical Twilight 6:04 AM EST 6:56 PM EST
Moon 8:19 AM EST (1/2) 7:16 PM EST (1/2)
Length of Visible Light 10h 46m
Length of Day
9h 50m
New Moon, 2% of the Moon is Illuminated
Jan 2
New Moon
Jan 7
First Quarter
Jan 15
Full
Jan 24
Last Quarter
Jan 30
New

Hourly Weather History & Observations

Time (EST) Temp. Windchill Dew Point Humidity Pressure Visibility Wind Dir Wind Speed Gust Speed Precip Events Conditions
12:15 AM 37.4 °F - 33.1 °F 84% 30.14 in 10.0 mi Calm Calm - N/A   Overcast
12:35 AM 37.0 °F 34.5 °F 33.1 °F 86% 30.14 in 10.0 mi WNW 3.5 mph - N/A   Mostly Cloudy
12:55 AM 37.2 °F - 32.2 °F 82% 30.12 in 10.0 mi Calm Calm - N/A   Mostly Cloudy
1:15 AM 38.7 °F - 32.9 °F 80% 30.12 in 10.0 mi Calm Calm - N/A   Overcast
1:35 AM 37.4 °F - 33.6 °F 86% 30.11 in 10.0 mi Calm Calm - N/A   Overcast
1:55 AM 37.9 °F - 33.1 °F 83% 30.11 in 10.0 mi Calm Calm - N/A   Overcast
2:15 AM 38.3 °F - 32.4 °F 79% 30.10 in 10.0 mi Calm Calm - N/A   Overcast
2:35 AM 36.5 °F - 32.7 °F 86% 30.09 in 10.0 mi Calm Calm - N/A   Overcast
2:55 AM 37.6 °F - 32.7 °F 83% 30.09 in 10.0 mi Calm Calm - N/A   Overcast
3:15 AM 37.4 °F - 33.8 °F 87% 30.08 in 10.0 mi Calm Calm - N/A   Mostly Cloudy
3:35 AM 37.4 °F 33.8 °F 33.1 °F 84% 30.06 in 10.0 mi NNE 4.6 mph - N/A   Scattered Clouds
3:55 AM 35.8 °F - 32.9 °F 89% 30.04 in 10.0 mi Calm Calm - N/A   Clear
4:15 AM 38.3 °F - 33.6 °F 83% 30.03 in 10.0 mi Calm Calm - N/A   Scattered Clouds
4:35 AM 37.9 °F - 33.3 °F 83% 30.03 in 10.0 mi Calm Calm - N/A   Scattered Clouds
4:55 AM 37.0 °F - 33.1 °F 86% 30.02 in 10.0 mi Calm Calm - N/A   Overcast
5:15 AM 37.4 °F - 33.8 °F 87% 30.01 in 10.0 mi Calm Calm - N/A   Overcast
5:35 AM 37.4 °F - 33.4 °F 86% 30.01 in 10.0 mi Calm Calm - N/A   Scattered Clouds
5:55 AM 37.4 °F - 33.8 °F 87% 29.99 in 10.0 mi Calm Calm - N/A   Clear
6:15 AM 35.8 °F - 32.9 °F 89% 29.98 in 10.0 mi Calm Calm - N/A   Clear
6:35 AM 38.1 °F - 34.5 °F 87% 29.97 in 10.0 mi Calm Calm - N/A   Clear
6:55 AM 35.6 °F - 32.9 °F 90% 29.96 in 10.0 mi Calm Calm - N/A   Scattered Clouds
7:15 AM 37.4 °F - 34.5 °F 89% 29.96 in 10.0 mi Calm Calm - N/A   Mostly Cloudy
7:35 AM 38.3 °F 34.8 °F 35.2 °F 89% 29.94 in 10.0 mi South 4.6 mph - N/A   Scattered Clouds
7:55 AM 39.2 °F 37.0 °F 35.6 °F 87% 29.94 in 10.0 mi SSW 3.5 mph - N/A   Mostly Cloudy
8:15 AM 39.7 °F - 36.0 °F 86% 29.92 in 10.0 mi Calm Calm - N/A   Overcast
8:35 AM 39.6 °F 37.4 °F 36.1 °F 88% 29.92 in 10.0 mi SSE 3.5 mph - N/A   Overcast
8:55 AM 40.6 °F 37.5 °F 36.7 °F 86% 29.91 in 10.0 mi SSE 4.6 mph - N/A   Scattered Clouds
9:15 AM 41.2 °F 39.2 °F 37.0 °F 85% 29.92 in 10.0 mi SSW 3.5 mph - N/A   Mostly Cloudy
9:35 AM 41.5 °F 39.6 °F 37.4 °F 85% 29.92 in 10.0 mi WSW 3.5 mph - N/A   Overcast
9:55 AM 41.0 °F - 37.4 °F 87% 29.91 in 10.0 mi Calm Calm - N/A   Overcast
10:15 AM 43.2 °F 40.5 °F 37.8 °F 81% 29.90 in 10.0 mi SSW 4.6 mph - N/A   Overcast
10:35 AM 43.5 °F - 38.3 °F 82% 29.88 in 10.0 mi Calm Calm - N/A   Overcast
10:55 AM 43.0 °F 39.5 °F 39.0 °F 86% 29.87 in 5.0 mi SW 5.8 mph - N/A   Overcast
11:15 AM 42.8 °F 39.3 °F 39.9 °F 90% 29.87 in 4.0 mi SSW 5.8 mph - N/A   Overcast
11:35 AM 42.4 °F 39.6 °F 40.8 °F 94% 29.85 in 1.8 mi SW 4.6 mph - N/A   Light Drizzle
11:55 AM 42.3 °F 40.5 °F 41.0 °F 95% 29.84 in 1.5 mi WSW 3.5 mph - N/A Rain Rain
12:15 PM 42.4 °F - 41.5 °F 97% 29.82 in 1.8 mi Calm Calm - 0.01 in Rain Light Rain
12:35 PM 43.0 °F 41.3 °F 42.3 °F 97% 29.79 in 1.8 mi SSE 3.5 mph - 0.03 in   Drizzle
12:55 PM 43.2 °F 40.5 °F 42.6 °F 98% 29.77 in 1.5 mi SSE 4.6 mph - 0.10 in Rain Rain
1:15 PM 43.7 °F 41.1 °F 43.0 °F 97% 29.75 in 1.8 mi South 4.6 mph - 0.03 in Rain Rain
1:35 PM 44.1 °F 40.8 °F 43.7 °F 99% 29.74 in 2.0 mi South 5.8 mph - 0.06 in Rain Rain
1:55 PM 44.2 °F 41.0 °F 43.9 °F 99% 29.72 in 2.0 mi South 5.8 mph - 0.06 in Rain Rain
2:15 PM 44.4 °F 42.0 °F 43.9 °F 98% 29.71 in 1.8 mi South 4.6 mph - 0.02 in   Drizzle
2:35 PM 44.6 °F 41.4 °F 44.1 °F 98% 29.71 in 3.0 mi SSW 5.8 mph - 0.02 in   Overcast
2:55 PM 44.6 °F 40.7 °F 44.2 °F 99% 29.69 in 3.0 mi SSW 6.9 mph - 0.02 in   Light Drizzle
3:15 PM 45.0 °F 41.2 °F 44.6 °F 99% 29.69 in 10.0 mi South 6.9 mph - N/A Rain Light Rain
3:35 PM 45.1 °F 40.3 °F 44.6 °F 98% 29.68 in 10.0 mi SSW 9.2 mph - 0.01 in Rain Light Rain
3:55 PM 45.1 °F 40.3 °F 44.6 °F 98% 29.67 in 7.0 mi South 9.2 mph - 0.03 in Rain Light Rain
4:15 PM 45.1 °F 42.0 °F 44.6 °F 98% 29.67 in 10.0 mi SSW 5.8 mph - N/A Rain Light Rain
4:35 PM 45.1 °F 40.8 °F 44.6 °F 98% 29.67 in 10.0 mi SW 8.1 mph - N/A   Light Drizzle
4:55 PM 45.5 °F 42.5 °F 44.6 °F 97% 29.66 in 10.0 mi SW 5.8 mph - N/A   Drizzle
5:15 PM 45.9 °F 41.7 °F 45.1 °F 97% 29.66 in 10.0 mi WSW 8.1 mph - N/A   Light Drizzle
5:35 PM 45.9 °F 42.3 °F 45.1 °F 97% 29.66 in 10.0 mi West 6.9 mph - N/A   Overcast
5:55 PM 45.9 °F 42.3 °F 45.1 °F 97% 29.66 in 10.0 mi West 6.9 mph - N/A   Overcast
6:15 PM 45.5 °F 41.8 °F 44.6 °F 97% 29.67 in 10.0 mi West 6.9 mph - N/A   Overcast
6:35 PM 45.3 °F 42.3 °F 44.6 °F 97% 29.67 in 10.0 mi West 5.8 mph - N/A   Overcast
6:55 PM 45.1 °F 41.4 °F 44.6 °F 98% 29.67 in 10.0 mi West 6.9 mph - N/A   Overcast
7:15 PM 44.8 °F 41.6 °F 44.1 °F 97% 29.68 in 10.0 mi WNW 5.8 mph - N/A   Overcast
7:35 PM 44.2 °F 40.3 °F 43.2 °F 96% 29.68 in 10.0 mi West 6.9 mph - N/A   Overcast
7:55 PM 43.3 °F 39.2 °F 41.9 °F 95% 29.69 in 10.0 mi West 6.9 mph - N/A   Overcast
8:15 PM 43.2 °F 37.9 °F 40.6 °F 91% 29.70 in 10.0 mi West 9.2 mph - N/A   Overcast
8:35 PM 42.4 °F 35.3 °F 36.0 °F 78% 29.71 in 10.0 mi WNW 13.8 mph 23.0 mph N/A   Mostly Cloudy
8:55 PM 41.0 °F 32.2 °F 33.1 °F 73% 29.72 in 10.0 mi WNW 18.4 mph 23.0 mph N/A   Mostly Cloudy
9:15 PM 39.6 °F 30.6 °F 31.5 °F 73% 29.72 in 10.0 mi WNW 17.3 mph 23.0 mph N/A   Scattered Clouds
9:35 PM 39.0 °F 30.6 °F 30.2 °F 71% 29.73 in 10.0 mi WNW 15.0 mph 19.6 mph N/A   Clear
9:55 PM 37.4 °F 26.6 °F 27.3 °F 67% 29.74 in 10.0 mi West 21.9 mph 33.4 mph N/A   Clear
10:15 PM 36.3 °F 25.2 °F 26.2 °F 67% 29.75 in 10.0 mi WNW 21.9 mph 31.1 mph N/A   Clear
10:35 PM 35.6 °F 24.2 °F 23.7 °F 62% 29.77 in 10.0 mi WNW 21.9 mph 29.9 mph N/A   Clear
10:55 PM 34.2 °F 23.6 °F 22.1 °F 61% 29.80 in 10.0 mi WNW 17.3 mph 27.6 mph N/A   Mostly Cloudy
11:15 PM 32.9 °F 21.6 °F 20.5 °F 60% 29.82 in 10.0 mi WNW 18.4 mph 28.8 mph N/A   Overcast
11:35 PM 31.8 °F 21.0 °F 18.5 °F 58% 29.84 in 10.0 mi WNW 16.1 mph 24.2 mph N/A   Scattered Clouds
11:55 PM 30.6 °F 20.7 °F 17.6 °F 59% 29.86 in 10.0 mi WNW 12.7 mph 19.6 mph N/A   Scattered Clouds